| time (UTC) | temp F | wind direction | speed MPH | gust MPH | rain 1hr in | rain 24hr in | rain mn in | humidity % | barometer mb |
| 20260505221550 | 67 | 281 | 0.0 | 0.0 | 0.00 | 0.33 | 0.33 | 51 | 1013.8 |
| 20260505220101 | 67 | 224 | 0.0 | 0.0 | 0.00 | 0.33 | 0.33 | 51 | 1013.8 |
| 20260505214551 | 67 | 291 | 0.0 | 0.0 | 0.00 | 0.33 | 0.33 | 53 | 1014.0 |
| 20260505213047 | 66 | 265 | 0.0 | 0.0 | 0.00 | 0.33 | 0.33 | 54 | 1014.1 |
| 20260505211551 | 66 | 288 | 0.0 | 0.0 | 0.00 | 0.33 | 0.33 | 56 | 1014.3 |
| 20260505210046 | 66 | 273 | 0.0 | 0.0 | 0.00 | 0.33 | 0.33 | 56 | 1014.3 |
| 20260505204545 | 66 | 295 | 0.0 | 0.0 | 0.00 | 0.33 | 0.33 | 54 | 1014.3 |
| 20260505203040 | 65 | 289 | 0.0 | 0.0 | 0.00 | 0.33 | 0.33 | 58 | 1014.3 |
| 20260505201538 | 63 | 294 | 0.0 | 0.0 | 0.00 | 0.33 | 0.33 | 57 | 1014.5 |
| 20260505200036 | 63 | 307 | 0.0 | 0.0 | 0.00 | 0.33 | 0.33 | 64 | 1014.5 |
| 20260505194540 | 64 | 307 | 0.0 | 0.0 | 0.00 | 0.33 | 0.33 | 62 | 1014.6 |
| 20260505193039 | 63 | 257 | 0.0 | 0.0 | 0.00 | 0.33 | 0.33 | 63 | 1014.6 |
| 20260505191537 | 62 | 246 | 0.0 | 0.0 | 0.00 | 0.33 | 0.33 | 69 | 1014.7 |
| 20260505190024 | 61 | 281 | 0.0 | 0.0 | 0.00 | 0.33 | 0.33 | 76 | 1014.8 |
| 20260505184525 | 60 | 296 | 0.0 | 0.0 | 0.00 | 0.33 | 0.33 | 77 | 1014.7 |
| 20260505183025 | 60 | 265 | 0.0 | 0.0 | 0.00 | 0.33 | 0.33 | 84 | 1014.8 |
| 20260505181519 | 58 | 305 | 0.0 | 0.0 | 0.01 | 0.33 | 0.33 | 89 | 1014.7 |
| 20260505180027 | 58 | 339 | 0.0 | 0.0 | 0.06 | 0.33 | 0.33 | 92 | 1014.6 |
| 20260505174529 | 57 | 341 | 0.0 | 0.0 | 0.06 | 0.33 | 0.33 | 91 | 1014.5 |
| 20260505173014 | 57 | 324 | 0.0 | 0.0 | 0.06 | 0.33 | 0.33 | 91 | 1014.5 |
| 20260505171515 | 57 | 311 | 0.0 | 0.0 | 0.05 | 0.32 | 0.32 | 91 | 1014.4 |
| 20260505170022 | 58 | 191 | 0.0 | 0.0 | 0.00 | 0.27 | 0.27 | 93 | 1014.2 |
| 20260505164515 | 58 | 132 | 0.0 | 0.0 | 0.00 | 0.27 | 0.27 | 93 | 1014.1 |
| 20260505163009 | 58 | 115 | 0.0 | 0.0 | 0.00 | 0.27 | 0.27 | 93 | 1014.0 |
| 20260505161506 | 57 | 217 | 0.0 | 0.0 | 0.00 | 0.27 | 0.27 | 93 | 1013.8 |
| 20260505153100 | 55 | 323 | 0.0 | 0.0 | 0.00 | 0.27 | 0.27 | 93 | 1013.7 |
| 20260505151556 | 55 | 325 | 0.0 | 0.0 | 0.05 | 0.27 | 0.27 | 93 | 1013.6 |
| 20260505124535 | 55 | 269 | 0.0 | 0.0 | 0.01 | 0.20 | 0.20 | 92 | 1012.5 |
| 20260505123053 | 56 | 260 | 0.0 | 0.0 | 0.00 | 0.19 | 0.19 | 92 | 1012.3 |
| 20260505121535 | 56 | 260 | 0.0 | 0.0 | 0.00 | 0.19 | 0.19 | 92 | 1012.2 |
| 20260505120033 | 56 | 261 | 0.0 | 0.0 | 0.00 | 0.19 | 0.19 | 92 | 1012.2 |
| 20260505114538 | 56 | 261 | 0.0 | 0.0 | 0.00 | 0.19 | 0.19 | 92 | 1012.1 |
| 20260505113036 | 56 | 259 | 0.0 | 0.0 | 0.01 | 0.19 | 0.19 | 92 | 1012.1 |
| 20260505111550 | 56 | 259 | 0.0 | 0.0 | 0.02 | 0.19 | 0.19 | 92 | 1012.2 |
| 20260505101532 | 55 | 217 | 0.0 | 0.0 | 0.00 | 0.17 | 0.17 | 90 | 1012.3 |
| 20260505100030 | 55 | 217 | 0.0 | 0.0 | 0.01 | 0.17 | 0.17 | 90 | 1012.4 |
| 20260505094523 | 56 | 243 | 0.0 | 0.0 | 0.01 | 0.17 | 0.17 | 89 | 1012.5 |
| 20260505093027 | 56 | 217 | 0.0 | 0.0 | 0.07 | 0.17 | 0.17 | 88 | 1012.6 |
| 20260505091520 | 56 | 229 | 0.0 | 0.0 | 0.10 | 0.17 | 0.17 | 88 | 1012.8 |
| 20260505090017 | 57 | 217 | 0.0 | 0.0 | 0.13 | 0.16 | 0.16 | 87 | 1013.0 |
| 20260505084519 | 57 | 203 | 0.0 | 0.0 | 0.16 | 0.16 | 0.16 | 85 | 1012.9 |
| 20260505083014 | 57 | 200 | 0.0 | 0.0 | 0.09 | 0.09 | 0.09 | 84 | 1013.1 |
| 20260505081509 | 58 | 202 | 0.0 | 0.0 | 0.07 | 0.07 | 0.07 | 82 | 1013.3 |
| 20260505080018 | 59 | 134 | 0.0 | 0.0 | 0.03 | 0.03 | 0.03 | 80 | 1013.4 |
| 20260505074505 | 59 | 158 | 0.0 | 0.0 | 0.00 | 0.00 | 0.00 | 78 | 1013.3 |
| 20260505073003 | 59 | 210 | 0.0 | 0.0 | 0.00 | 0.00 | 0.00 | 77 | 1013.3 |
| 20260505071604 | 60 | 228 | 0.0 | 0.0 | 0.00 | 0.00 | 0.00 | 76 | 1013.5 |
| 20260505070059 | 60 | 232 | 0.0 | 0.0 | 0.00 | 0.00 | 0.00 | 75 | 1013.3 |
| 20260505064603 | 60 | 237 | 0.0 | 0.0 | 0.00 | 0.00 | 0.00 | 75 | 1013.4 |
| 20260505063057 | 60 | 255 | 0.0 | 0.0 | 0.00 | 0.00 | 0.00 | 74 | 1013.5 |
| 20260505061557 | 60 | 245 | 0.0 | 0.0 | 0.00 | 0.00 | 0.00 | 74 | 1013.6 |
| 20260505054603 | 60 | 217 | 0.0 | 0.0 | 0.00 | 0.00 | 0.00 | 73 | 1013.8 |
| 20260505053110 | 60 | 238 | 0.0 | 0.0 | 0.00 | 0.00 | 0.00 | 73 | 1014.0 |
| 20260505051555 | 60 | 226 | 0.0 | 0.0 | 0.00 | 0.00 | 0.00 | 73 | 1014.1 |
| 20260505041612 | 60 | 223 | 0.0 | 0.0 | 0.00 | 0.00 | 0.00 | 74 | 1014.4 |
| 20260505040053 | 60 | 295 | 0.0 | 0.0 | 0.00 | 0.00 | 0.00 | 74 | 1014.3 |
| 20260505034552 | 60 | 277 | 0.0 | 0.0 | 0.00 | 0.00 | 0.00 | 74 | 1014.2 |
| 20260505033051 | 60 | 264 | 0.0 | 0.0 | 0.00 | 0.00 | 0.00 | 74 | 1014.0 |
| 20260505031600 | 60 | 276 | 0.0 | 0.0 | 0.00 | 0.00 | 0.00 | 74 | 1013.8 |
| 20260505030051 | 60 | 274 | 0.0 | 0.0 | 0.00 | 0.00 | 0.00 | 73 | 1013.8 |
| 20260505024550 | 61 | 287 | 0.0 | 0.0 | 0.00 | 0.00 | 0.00 | 71 | 1013.4 |
| 20260505023051 | 62 | 266 | 0.0 | 0.0 | 0.00 | 0.00 | 0.00 | 70 | 1013.5 |
| 20260505021549 | 63 | 272 | 0.0 | 0.0 | 0.00 | 0.00 | 0.00 | 68 | 1013.4 |
| 20260505020048 | 63 | 311 | 0.0 | 0.0 | 0.00 | 0.00 | 0.00 | 67 | 1013.5 |
| 20260505014548 | 63 | 297 | 0.0 | 0.0 | 0.00 | 0.00 | 0.00 | 67 | 1013.4 |
| 20260505013046 | 65 | 285 | 0.0 | 0.0 | 0.00 | 0.00 | 0.00 | 62 | 1013.6 |
| 20260505011546 | 66 | 306 | 0.0 | 0.0 | 0.00 | 0.00 | 0.00 | 61 | 1013.5 |
| 20260505010047 | 66 | 312 | 0.0 | 0.0 | 0.00 | 0.00 | 0.00 | 59 | 1013.7 |
| 20260505004546 | 67 | 302 | 0.0 | 0.0 | 0.00 | 0.00 | 0.00 | 57 | 1013.8 |
| 20260505003043 | 67 | 271 | 0.0 | 0.0 | 0.00 | 0.00 | 0.00 | 54 | 1013.7 |
| 20260505001550 | 67 | 277 | 0.0 | 0.0 | 0.00 | 0.00 | 0.00 | 54 | 1013.7 |
| 20260505000052 | 67 | 255 | 0.0 | 0.0 | 0.00 | 0.00 | 0.00 | 53 | 1013.7 |
| 20260504234549 | 67 | 293 | 0.0 | 0.0 | 0.00 | 0.00 | 0.00 | 53 | 1013.8 |
| 20260504233040 | 68 | 271 | 0.0 | 0.0 | 0.00 | 0.00 | 0.00 | 54 | 1013.7 |
| 20260504231555 | 68 | 244 | 0.0 | 0.0 | 0.00 | 0.00 | 0.00 | 54 | 1013.7 |
| 20260504230039 | 68 | 273 | 0.0 | 0.0 | 0.00 | 0.00 | 0.00 | 54 | 1013.7 |
| 20260504224540 | 68 | 246 | 0.0 | 0.0 | 0.00 | 0.00 | 0.00 | 53 | 1013.8 |
| 20260504223035 | 68 | 282 | 0.0 | 0.0 | 0.00 | 0.00 | 0.00 | 53 | 1013.8 |